Location: Ku?niki
(51.4449°N, 17.8974°E)
Time: 01:02:08
(UTC+00:00)

ZACube-1 - Pass Details

Date: 04 July 2022
Orbit: 582 x 661 km, 97.6° (Epoch: 07 August)

Event Time Altitude Azimuth Distance (km) Brightness Sun altitude
Rises 01:27:03 0° 28° (NNE) 2,960 ? -8.3°
Reaches altitude 10° 01:30:10 10° 52° (NE) 2,059 ? -8.0°
Maximum altitude 01:32:46 15° 88° (E) 1,747 ? -7.8°
Drops below altitude 10° 01:35:23 10° 123° (ESE) 2,068 ? -7.6°
Sets 01:38:30 0° 147° (SSE) 2,981 ? -7.3°
